星链-3389 (STARLINK-3389 )

导读 | 星芒AI

STARLINK-3389 是 SpaceX 星链计划中的一颗低轨通信卫星,属于第 6 批星链卫星(Batch 6/Gen2)。它于 2023 年 11 月 由猎鹰 9 号火箭发射入轨,旨在为全球提供高速互联网服务。该卫星采用先进设计,具备激光通信和高带宽能力,有助于提升星链网络的稳定性和覆盖范围。作为星链星座的一部分,STARLINK-3389 在轨运行支持偏远地区的宽带接入,推动全球互联网普及。

基本信息
目录编号:
51124
目录名称:
STARLINK-3389
国际标识:
2022-005W
轨道中心:
EARTH
卫星名称:
星链-3389
卫星全名:
星链-3389 (STARLINK-3389 )
卫星状态:
在轨 (已飞行1431 天)
发射日期:
2022-01-19 UTC
国别 :
美国 (US)
星等 :
--
轨道信息
数据来源 国际轨道数据 AOE轨道数据
星历时间 2025-12-20T11:21:46+0800
8小时前
查看轨道信息
2025-12-13T21:00:00+0800
6天前
查看轨道信息
半长轴 6917.89km 6917.889km
偏心率 0.0001291 0.0001456
轨道倾角 53.218° 53.218°
近地点辐角 79.472° 101.570°
升交点赤经 296.234° 325.854°
平近点角 280.642° 37.434°
近地点 538.859km 538.746km
远地点 540.647km 540.762km
周期 95.438分钟 95.438分钟
每日圈数 15.088371 15.088375
详细信息
固有亮度:
5
最大亮度:
2.5
卫星平台:
Starlink v1.5
覆盖范围:
全球
运营商:
太空探索技术公司
运营商所在国:
美国
制造商(研发单位):
太空探索技术公司
制造商所在国:
美国
使用方式:
暂无
卫星简介
星链(Starlink)计划是由太空探索技术公司(SpaceX)提出的一个巨型低轨卫星互联网星座项目,计划在2019年至2024年间在太空搭建由约1.2万颗卫星组成的“星链”网络,其中1584颗将部署在地球上空550千米处的近地轨道,并从2020年开始工作。该卫星仍在工作。
2D轨道图
3D轨道图
轨道高度分析图
轨道倾角分析图
轨道综合分析图
查看轨道综合分析图